Weather in Borovikovo

Russia / Kostroma Oblast     57°38′49″N   41°08′11″E
temp.,
°C
wind,
m/s
gust,
m/s
humid.,
%
clouds,
%
prec.,
mm/h
press.,
hPa
HPBL,
m
11 may, tue
tue1100:00+5ne22805 0.0 102935
03:00+4ene23836 0.0 102951
06:00+6ene25785 0.0 1030141
09:00+13ene36525 0.0 1030677
12:00+17ene35385 0.0 10291020
15:00+18e34350 0.0 10281114
18:00+17e24535 0.0 1028170
21:00+10e33680 0.0 102946
12 may, wed
wed1200:00+9ese24740 0.0 102961
03:00+9e22890 0.0 102933
06:00+11ene24850 0.0 1029106
09:00+18e346654 0.0 1029488
12:00+22e355376 0.0 10271096
15:00+23e47485 0.0 10252050
18:00+22e376185 0.1 1023430
21:00+15se378932 0.6 1024122
13 may, thu
thu1300:00+14se3118472 0.0 1024353
03:00+12se389221 0.0 1024219
06:00+13ese278914 0.0 1024228
09:00+19ese476220 0.0 1023833
12:00+22ese585075 0.0 10211442
15:00+22se695380 0.1 10191534
18:00+18se51267100 0.6 1018965
21:00+15se41192100 0.9 1018602
14 may, fri
fri1400:00+14sse3897100 0.6 1018442
03:00+12s239946 0.6 101973
06:00+13ssw239513 0.0 1019142
09:00+18s227039 0.0 1019517
12:00+21s2356100 0.0 10191059
15:00+21sse235392 0.0 10191201
18:00+21sse256113 0.0 1017575
21:00+16e3784100 0.0 1016117
15 may, sat
sat1500:00+15se2894100 0.3 1016169
03:00+15ese4797100 2.1 1014175
06:00+16se41095100 0.6 1012327
09:00+21sse5978100 0.6 1012545
12:00+24sse5861100 0.0 10111045
15:00+26se5105640 0.0 10101620
18:00+22s613587 0.0 10091264
21:00+16sse413890 0.8 1009360